Total_Precipitation_Accumulation
0.51 0.56 0.66 0.80 0.96 1.09 1.22 1.36 1.65 1.81 2.01 2.07 2.01 1.94 2.04 2.07 2.10 2.11 2.06 1.95 1.87 1.76 1.60 1.41 1.27 1.22 1.11 1.00 0.89 0.81 0.79 0.77 0.74 0.74 0.68 0.62 0.57 0.51 0.46 0.48 0.60 0.72 0.73
0.59 0.63 0.75 0.90 0.97 1.01 1.14 1.31 1.54 1.71 1.82 1.79 1.76 1.75 1.77 1.86 1.93 2.00 2.08 2.10 2.04 1.90 1.78 1.63 1.47 1.34 1.26 1.13 1.01 0.91 0.84 0.79 0.71 0.73 0.77 0.68 0.62 0.53 0.42 0.36 0.43 0.53 0.62
0.53 0.55 0.67 0.91 1.02 1.01 1.10 1.23 1.44 1.60 1.78 1.92 1.96 1.95 2.07 2.09 1.99 1.90 1.93 2.00 1.99 1.91 1.78 1.67 1.61 1.53 1.42 1.29 1.18 1.08 1.00 0.92 0.80 0.71 0.89 0.93 0.71 0.50 0.38 0.34 0.35 0.36 0.41
0.52 0.52 0.60 0.82 1.00 0.99 1.14 1.29 1.47 1.69 1.80 1.99 2.02 1.83 1.76 1.81 1.71 1.68 1.67 1.80 1.93 1.92 1.82 1.76 1.72 1.60 1.49 1.36 1.27 1.26 1.22 1.20 1.14 0.97 0.84 0.80 0.73 0.74 0.54 0.34 0.30 0.28 0.29
0.52 0.51 0.55 0.74 0.96 1.05 1.16 1.36 1.50 1.72 1.88 1.96 1.98 1.83 1.67 1.59 1.66 1.79 1.84 1.80 1.82 1.91 1.88 1.77 1.74 1.65 1.51 1.43 1.36 1.27 1.27 1.27 1.27 1.17 1.01 0.88 0.73 0.68 0.77 0.55 0.36 0.35 0.33
0.55 0.58 0.60 0.74 0.90 1.03 1.17 1.32 1.54 1.70 1.92 2.01 1.97 1.77 1.60 1.51 1.56 1.65 1.85 1.94 1.92 1.94 1.95 1.86 1.78 1.68 1.51 1.42 1.42 1.36 1.29 1.27 1.26 1.21 1.12 1.06 0.98 0.79 0.80 0.73 0.48 0.42 0.40
0.61 0.61 0.62 0.71 0.80 0.94 1.11 1.25 1.43 1.70 1.89 2.02 1.95 1.74 1.58 1.48 1.47 1.51 1.62 1.75 1.85 1.91 1.92 1.89 1.79 1.67 1.56 1.42 1.41 1.42 1.38 1.32 1.36 1.37 1.28 1.17 1.07 0.95 0.96 0.99 0.79 0.61 0.49
0.66 0.65 0.62 0.68 0.76 0.88 1.04 1.21 1.35 1.60 1.84 1.96 1.94 1.83 1.61 1.50 1.46 1.49 1.52 1.57 1.54 1.59 1.75 1.90 1.94 1.75 1.56 1.47 1.42 1.39 1.35 1.35 1.36 1.34 1.34 1.32 1.18 1.13 1.16 1.21 1.27 1.15 0.78
0.70 0.72 0.69 0.73 0.77 0.87 1.00 1.17 1.32 1.49 1.74 1.95 1.96 1.92 1.74 1.58 1.48 1.46 1.48 1.56 1.54 1.49 1.56 1.73 1.88 1.96 1.88 1.70 1.57 1.49 1.40 1.41 1.43 1.39 1.39 1.41 1.32 1.24 1.20 1.23 1.41 1.67 1.41
0.67 0.73 0.73 0.75 0.80 0.91 1.03 1.14 1.29 1.41 1.60 1.81 1.92 1.91 1.93 1.75 1.63 1.56 1.50 1.49 1.54 1.53 1.47 1.51 1.61 1.72 1.81 1.83 1.77 1.68 1.53 1.47 1.44 1.43 1.46 1.48 1.47 1.45 1.38 1.32 1.30 1.47 1.64
0.69 0.78 0.80 0.78 0.81 0.95 1.07 1.12 1.21 1.38 1.55 1.65 1.73 1.81 1.95 1.84 1.76 1.71 1.61 1.50 1.47 1.54 1.54 1.50 1.56 1.61 1.64 1.68 1.76 1.74 1.68 1.66 1.60 1.54 1.55 1.53 1.55 1.64 1.63 1.56 1.48 1.43 1.52
0.68 0.71 0.76 0.78 0.77 0.87 1.05 1.15 1.21 1.26 1.45 1.59 1.66 1.73 1.87 1.93 1.81 1.76 1.70 1.55 1.43 1.44 1.50 1.52 1.53 1.60 1.65 1.66 1.73 1.72 1.69 1.76 1.74 1.63 1.59 1.56 1.56 1.63 1.68 1.75 1.68 1.53 1.44
0.67 0.69 0.69 0.72 0.77 0.82 0.96 1.09 1.17 1.19 1.31 1.53 1.57 1.66 1.77 1.84 1.82 1.74 1.75 1.68 1.60 1.60 1.58 1.62 1.66 1.69 1.74 1.80 1.85 1.88 1.87 1.90 1.89 1.82 1.78 1.67 1.66 1.71 1.67 1.71 1.74 1.64 1.54
0.66 0.65 0.67 0.70 0.76 0.83 0.92 0.99 1.05 1.16 1.28 1.50 1.61 1.60 1.65 1.68 1.72 1.75 1.72 1.77 1.81 1.85 1.88 1.85 1.83 1.86 1.93 2.06 2.14 2.20 2.17 2.11 2.06 2.03 1.98 1.90 1.81 1.81 1.80 1.81 1.75 1.70 1.71
0.66 0.66 0.70 0.72 0.76 0.86 0.94 0.93 0.99 1.07 1.21 1.39 1.53 1.58 1.60 1.71 1.81 1.85 1.89 1.85 1.93 1.98 1.94 1.96 1.98 1.93 2.09 2.41 2.55 2.42 2.23 2.08 1.99 1.92 1.89 1.92 2.02 2.03 2.08 2.14 1.99 1.87 1.94
0.67 0.69 0.71 0.75 0.79 0.85 0.92 0.91 0.91 1.00 1.13 1.30 1.39 1.46 1.59 1.71 1.88 1.94 2.02 2.02 2.02 2.05 2.03 1.98 1.97 1.94 2.02 2.49 2.66 2.22 1.87 1.79 1.82 1.80 1.68 1.67 1.87 1.95 2.04 2.17 2.15 2.14 2.21
0.58 0.65 0.73 0.78 0.80 0.83 0.85 0.90 0.90 0.91 1.01 1.18 1.29 1.36 1.52 1.61 1.72 1.80 1.84 1.90 1.86 1.83 1.88 1.92 1.83 1.77 1.89 2.30 2.39 2.07 1.60 1.48 1.53 1.57 1.54 1.49 1.52 1.74 1.67 1.82 1.92 1.96 2.09
0.55 0.57 0.69 0.76 0.74 0.77 0.83 0.85 0.85 0.86 0.95 1.07 1.18 1.21 1.35 1.49 1.55 1.61 1.65 1.68 1.64 1.66 1.77 1.75 1.62 1.52 1.60 1.99 2.11 1.91 1.49 1.41 1.44 1.45 1.45 1.43 1.42 1.56 1.77 1.83 1.75 1.64 1.71
0.55 0.57 0.65 0.70 0.70 0.75 0.80 0.79 0.80 0.81 0.89 0.98 1.05 1.07 1.15 1.33 1.37 1.45 1.54 1.53 1.55 1.57 1.58 1.56 1.48 1.39 1.43 1.76 2.02 1.86 1.40 1.45 1.45 1.42 1.45 1.41 1.34 1.69 1.93 1.86 1.77 1.65 1.61
0.55 0.59 0.64 0.64 0.66 0.72 0.73 0.72 0.73 0.77 0.84 0.91 0.98 0.99 1.01 1.13 1.16 1.21 1.30 1.34 1.36 1.44 1.49 1.49 1.43 1.36 1.32 1.60 1.97 1.95 1.45 1.46 1.44 1.41 1.46 1.62 1.56 1.76 1.85 1.73 1.79 1.84 1.61
0.60 0.59 0.61 0.64 0.68 0.72 0.73 0.73 0.72 0.75 0.79 0.82 0.87 0.91 0.97 1.04 1.05 1.09 1.14 1.22 1.28 1.35 1.41 1.45 1.40 1.31 1.30 1.42 1.73 2.08 1.74 1.54 1.45 1.43 1.45 1.50 1.72 1.74 1.78 1.77 1.72 1.89 1.73
0.60 0.60 0.62 0.67 0.68 0.69 0.68 0.66 0.73 0.73 0.74 0.80 0.85 0.90 0.95 0.97 0.99 1.03 1.11 1.13 1.23 1.37 1.39 1.36 1.36 1.33 1.29 1.34 1.51 1.82 1.96 1.81 1.56 1.47 1.31 1.35 1.60 1.64 1.74 1.69 1.75 1.84 1.75
0.58 0.58 0.62 0.67 0.67 0.67 0.65 0.65 0.71 0.72 0.73 0.77 0.82 0.89 0.95 0.96 1.01 1.03 1.10 1.16 1.25 1.38 1.39 1.32 1.30 1.31 1.27 1.34 1.56 1.57 1.65 1.79 1.64 1.56 1.60 1.50 1.53 1.53 1.49 1.57 1.68 1.65 1.55
0.53 0.52 0.57 0.63 0.65 0.68 0.68 0.69 0.71 0.72 0.75 0.78 0.79 0.84 0.94 1.01 1.02 1.05 1.09 1.12 1.19 1.34 1.39 1.35 1.32 1.25 1.22 1.32 1.55 1.50 1.45 1.58 1.64 1.67 1.68 1.63 1.58 1.53 1.47 1.48 1.46 1.41 1.48
0.51 0.50 0.53 0.59 0.65 0.67 0.68 0.70 0.75 0.79 0.81 0.78 0.78 0.81 0.91 0.98 1.01 1.05 1.09 1.13 1.13 1.34 1.51 1.42 1.41 1.40 1.41 1.49 1.73 1.70 1.60 1.63 1.67 1.74 1.74 1.64 1.58 1.57 1.48 1.39 1.34 1.38 1.47
0.50 0.49 0.49 0.55 0.61 0.64 0.68 0.73 0.81 0.85 0.85 0.83 0.83 0.85 0.92 0.94 0.96 1.00 1.08 1.18 1.20 1.28 1.28 1.32 1.39 1.36 1.49 1.57 1.55 1.60 1.64 1.67 1.73 1.77 1.73 1.53 1.41 1.40 1.37 1.35 1.33 1.29 1.31